Tracking 27107 objects as of 20-Mar-2023
HD Live streaming from Space Station
objects crossing your sky now

SL-16 DEB

Track SL-16 DEB now!
10-day predictions


NORAD ID: 39303
Int'l Code: 1992-093JU
Perigee: 817.2 km
Apogee: 898.7 km
Inclination: 70.9 °
Period: 101.9 minutes
Semi major axis: 7228 km
RCS: 0.0004 m2 (small)
Launch date: December 25, 1992
Source: Commonwealth of Independent States (former USSR) (CIS)
Launch site: TYURATAM MISSILE AND SPACE COMPLEX (TTMTR)

Note: This is SATELLITE DEBRIS
Your satellite tracking list
Your tracking list is empty




NASA's NSSDC Master Catalog

Two Line Element Set (TLE):
1 39303U 92093JU  23078.80593468  .00001019  00000-0  56835-3 0  9995
2 39303  70.9055 244.2383 0056373 124.9355 235.7080 14.12517584484789
Source of the keplerian elements: AFSPC